OBJECT K, 63219

Orbit data source: Space-Track

You're viewing an uncataloged RSO

Recently launched and/or uncataloged RSOs may have evolving metadata. Metadata may include the following, but is not limited to: Owner, Manufacturer, Bus, Motor, and Mission.

OBJECT K, 63219 is a satellite in SSO that was launched on Sat, 15 Mar 2025 UTC via an FALCON 9 launch vehicle from the Air Force Western Test Range (AFWTR). Unknown objects in Earth's orbit typically refer to objects detected orbiting the Earth but have not yet been identified or cataloged. These objects could be anything from previously untracked satellites, spent rocket stages, debris from satellite collisions, or even natural meteoroids temporarily captured by Earth's gravity.

Loading next visibility...
Identifier
63219, 2025-052K
Orbit
SSO
Country
Flag of TBDTBD
Related business
Flag of ILTel Aviv University (IL)
Manufacturer
ISA/TAU
Mission
Operational Amateur Communications
Bus & Motor
CUBESAT 1U, Unknown motor
Mass
1 kg wet, 1 kg dry
Launch date (UTC)
2025-03-15 (1 year ago)
Launch vehicle
FALCON 9
Launch site
Air Force Western Test Range (AFWTR)
Object type
Unknown
Shape & HBR
Box, 1.1 m
Radar Cross Section
0.015 m², Medium (>0.1 m² and < 1m²)

Expand to show TLE details & history
Last TLE update: 10 hours ago

TLE from 10 hours ago
0 OBJECT K
1 63219U 25052K   26221.64287215  .00012606  00000-0  36661-3 0  9993
2 63219  97.3805 117.6495 0001070   0.1245 359.9999 15.35581506 78296
Epoch: 2026-08-09T15:25Z
TLE epoch observation values (Epoch: 2026-08-09T15:25:44.153Z)
Latitude
-0.00001°
Longitude
-71.92139°
Altitude
461.574 km
Speed
7.636 km/s
True Right ascension
07h 50m 35s
True Declination
0° 00' 00"
Sunlit
Object was in daylight at epoch
Visualization orbit readout
Latitude
Unknown
Longitude
Unknown
Altitude
Unknown
Speed
Unknown
Apparent Right ascension
Unknown
Apparent Declination
Unknown
Sunlit
N/A
Visualization observer readout
Local Sidereal Time
15:47:35
Azimuth
Unknown
Elevation
Unknown
Doppler factor
Unknown
Orbital elements
Apogee altitude
456.869 km
Perigee altitude
455.407 km
Semi-major axis
6,834.275 km
Eccentricity
0.00011
Inclination
97.3805°
RAAN
117.6495°
Arg. of periapsis
0.1245°
True anomaly
359.9999°
Mean anomaly
359.9999°
Eccentric anomaly
359.9999°
Mean motion
3.84153 °/min
Orbital period
93.71 mins
BSTAR
0.00036661
Loading maneuver chart data...
Computing Atmospheric mass density...
Loading historical data...
Loading historical data...
Loading historical data...
Loading historical data...
Loading historical data...
Loading historical data...
Loading historical data...

Documentation

Showing up to 5 results
|